When you browse on this site, cookies collect data to enhance your experience and personalize the content and advertising you see.
Visit our Privacy Policy to learn more. By continuing to use the site, you agree to this use of cookies and data.
  • Em Portugal
  • Lista de países
  • Para 7 dias
  • Temperatura da água
  • Mapas de satélite
  • Mapa do tempo
  • Widgets de tempo
  • user-avatar
    Iniciar Sessão

    Previsão horária em Hobart

    Hoje, 20 Julho, Sábado

    Tempo Temperatura Precipitação Vento Pressão Humidade
    00:00 +6°C° 0 mm 2 m/s 748 mmHg 91%
    01:00 +5°C° 0 mm 2 m/s 748 mmHg 91%
    02:00 +5°C° 0 mm 2 m/s 748 mmHg 92%
    03:00 +4°C° 0 mm 2 m/s 748 mmHg 92%
    04:00 +3°C° 0 mm 3 m/s 747 mmHg 91%
    05:00 +3°C° 0 mm 3 m/s 747 mmHg 91%
    06:00 +2°C° 0 mm 3 m/s 747 mmHg 92%
    07:00 +3°C° 0 mm 2 m/s 746 mmHg 92%
    08:00 +5°C° 0 mm 2 m/s 746 mmHg 85%
    09:00 +7°C° 0 mm 2 m/s 746 mmHg 78%
    10:00 +8°C° 0 mm 2 m/s 746 mmHg 71%
    11:00 +10°C° 0 mm 3 m/s 746 mmHg 65%
    12:00 +12°C° 0 mm 3 m/s 745 mmHg 59%
    13:00 +14°C° 0 mm 4 m/s 745 mmHg 54%
    14:00 +13°C° 0 mm 3 m/s 745 mmHg 57%
    15:00 +13°C° 0 mm 3 m/s 744 mmHg 60%
    16:00 +12°C° 0 mm 3 m/s 744 mmHg 63%
    17:00 +11°C° 0 mm 3 m/s 744 mmHg 70%
    18:00 +8°C° 0 mm 4 m/s 744 mmHg 77%
    19:00 +7°C° 0 mm 4 m/s 744 mmHg 85%
    20:00 +7°C° 0 mm 4 m/s 744 mmHg 85%
    21:00 +6°C° 0 mm 4 m/s 744 mmHg 86%
    22:00 +6°C° 0 mm 4 m/s 744 mmHg 87%
    23:00 +6°C° 0 mm 4 m/s 743 mmHg 86%

    Amanhã, 21 Julho, Domingo

    Tempo Temperatura Precipitação Vento Pressão Humidade
    00:00 +6°C° 0 mm 4 m/s 742 mmHg 84%
    01:00 +7°C° 0 mm 4 m/s 742 mmHg 83%
    02:00 +7°C° 0 mm 4 m/s 741 mmHg 81%
    03:00 +7°C° 0 mm 5 m/s 741 mmHg 80%
    04:00 +7°C° 0 mm 5 m/s 740 mmHg 79%
    05:00 +7°C° 0 mm 5 m/s 739 mmHg 80%
    06:00 +7°C° 0 mm 5 m/s 738 mmHg 82%
    07:00 +7°C° 0 mm 5 m/s 737 mmHg 84%
    08:00 +8°C° 0 mm 5 m/s 737 mmHg 79%
    09:00 +9°C° 0 mm 5 m/s 737 mmHg 74%
    10:00 +12°C° 0 mm 5 m/s 737 mmHg 69%
    11:00 +12°C° 0 mm 5 m/s 737 mmHg 66%
    12:00 +12°C° 0 mm 5 m/s 737 mmHg 63%
    13:00 +12°C° 0 mm 5 m/s 737 mmHg 60%
    14:00 +10°C° 0 mm 5 m/s 737 mmHg 62%
    15:00 +9°C° 0 mm 5 m/s 738 mmHg 65%
    16:00 +8°C° 0 mm 5 m/s 738 mmHg 67%
    17:00 +7°C° 0 mm 5 m/s 739 mmHg 71%
    18:00 +6°C° 0 mm 4 m/s 740 mmHg 75%
    19:00 +4°C° 0 mm 3 m/s 740 mmHg 79%
    20:00 +5°C° 0 mm 3 m/s 741 mmHg 78%
    21:00 +5°C° 0 mm 3 m/s 741 mmHg 78%
    22:00 +7°C° 0 mm 3 m/s 741 mmHg 77%
    23:00 +5°C° 0 mm 3 m/s 741 mmHg 80%

    Depois de amanhã, 22 Julho, Segunda-feira

    Tempo Temperatura Precipitação Vento Pressão Humidade
    00:00 +5°C° 0 mm 3 m/s 741 mmHg 82%
    01:00 +4°C° 0 mm 3 m/s 741 mmHg 85%
    02:00 +4°C° 0 mm 3 m/s 741 mmHg 85%
    03:00 +5°C° 0 mm 3 m/s 741 mmHg 85%
    04:00 +5°C° 0 mm 3 m/s 740 mmHg 85%
    05:00 +5°C° 0 mm 3 m/s 740 mmHg 86%
    06:00 +5°C° 0 mm 3 m/s 741 mmHg 86%
    07:00 +5°C° 0 mm 3 m/s 741 mmHg 87%
    08:00 +8°C° 0 mm 3 m/s 741 mmHg 80%
    09:00 +10°C° 0 mm 4 m/s 741 mmHg 74%
    10:00 +12°C° 0 mm 4 m/s 741 mmHg 67%
    11:00 +13°C° 0 mm 5 m/s 740 mmHg 63%
    12:00 +14°C° 0 mm 5 m/s 740 mmHg 60%
    13:00 +15°C° 0 mm 6 m/s 739 mmHg 56%
    14:00 +14°C° 0 mm 6 m/s 739 mmHg 58%
    15:00 +13°C° 0 mm 6 m/s 739 mmHg 60%
    16:00 +13°C° 0 mm 5 m/s 738 mmHg 61%
    17:00 +10°C° 0 mm 5 m/s 738 mmHg 66%
    18:00 +9°C° 0 mm 5 m/s 738 mmHg 71%
    19:00 +8°C° 0 mm 5 m/s 738 mmHg 77%
    20:00 +8°C° 0 mm 5 m/s 738 mmHg 75%
    21:00 +9°C° 0 mm 5 m/s 737 mmHg 73%
    22:00 +9°C° 0 mm 5 m/s 737 mmHg 71%
    23:00 +10°C° 0.1 mm 4 m/s 737 mmHg 74%

    23 Julho, Terça-feira

    Tempo Temperatura Precipitação Vento Pressão Humidade
    00:00 +10°C° 0.1 mm 4 m/s 736 mmHg 78%
    01:00 +9°C° 0.1 mm 3 m/s 736 mmHg 81%
    02:00 +8°C° 0.4 mm 4 m/s 736 mmHg 83%
    03:00 +7°C° 0.4 mm 4 m/s 736 mmHg 84%
    04:00 +7°C° 0.4 mm 5 m/s 736 mmHg 85%
    05:00 +6°C° 0 mm 4 m/s 737 mmHg 85%
    06:00 +5°C° 0 mm 4 m/s 737 mmHg 85%
    07:00 +5°C° 0 mm 4 m/s 738 mmHg 85%
    08:00 +5°C° 0 mm 4 m/s 738 mmHg 81%
    09:00 +6°C° 0 mm 4 m/s 738 mmHg 77%
    10:00 +7°C° 0 mm 4 m/s 739 mmHg 73%
    11:00 +7°C° 0 mm 4 m/s 739 mmHg 69%
    12:00 +8°C° 0 mm 4 m/s 739 mmHg 65%
    13:00 +9°C° 0 mm 5 m/s 739 mmHg 60%
    14:00 +8°C° 0 mm 4 m/s 739 mmHg 60%
    15:00 +9°C° 0 mm 3 m/s 739 mmHg 59%
    16:00 +8°C° 0 mm 3 m/s 739 mmHg 58%
    17:00 +7°C° 0 mm 2 m/s 739 mmHg 65%
    18:00 +6°C° 0 mm 2 m/s 739 mmHg 71%
    19:00 +4°C° 0 mm 2 m/s 739 mmHg 77%
    20:00 +4°C° 0 mm 2 m/s 738 mmHg 77%
    21:00 +5°C° 0 mm 2 m/s 737 mmHg 78%
    22:00 +4°C° 0 mm 3 m/s 737 mmHg 78%
    23:00 +4°C° 0.1 mm 3 m/s 736 mmHg 81%

    24 Julho, Quarta-feira

    Tempo Temperatura Precipitação Vento Pressão Humidade
    00:00 +4°C° 0.1 mm 3 m/s 736 mmHg 83%
    01:00 +4°C° 0.1 mm 3 m/s 736 mmHg 86%
    02:00 +4°C° 0 mm 2 m/s 736 mmHg 88%
    03:00 +4°C° 0 mm 2 m/s 737 mmHg 91%
    04:00 +4°C° 0 mm 1 m/s 737 mmHg 93%
    05:00 +3°C° 0.1 mm 3 m/s 739 mmHg 91%
    06:00 +3°C° 0.1 mm 4 m/s 740 mmHg 89%
    07:00 +3°C° 0.1 mm 5 m/s 742 mmHg 88%
    08:00 +5°C° 0.1 mm 4 m/s 743 mmHg 85%
    09:00 +5°C° 0.1 mm 4 m/s 744 mmHg 82%
    10:00 +6°C° 0.1 mm 4 m/s 745 mmHg 79%
    11:00 +7°C° 0 mm 4 m/s 746 mmHg 70%
    12:00 +8°C° 0 mm 4 m/s 746 mmHg 61%
    13:00 +10°C° 0 mm 4 m/s 747 mmHg 52%
    14:00 +9°C° 0 mm 3 m/s 747 mmHg 55%
    15:00 +9°C° 0 mm 3 m/s 747 mmHg 59%
    16:00 +9°C° 0 mm 3 m/s 748 mmHg 63%
    17:00 +7°C° 0 mm 2 m/s 748 mmHg 69%
    18:00 +6°C° 0 mm 2 m/s 749 mmHg 75%
    19:00 +4°C° 0 mm 2 m/s 749 mmHg 81%
    20:00 +4°C° 0 mm 2 m/s 749 mmHg 83%
    21:00 +3°C° 0 mm 3 m/s 749 mmHg 84%
    22:00 +3°C° 0 mm 3 m/s 749 mmHg 85%
    23:00 +3°C° 0 mm 3 m/s 749 mmHg 84%

    25 Julho, Quinta-feira

    Tempo Temperatura Precipitação Vento Pressão Humidade
    00:00 +4°C° 0 mm 3 m/s 748 mmHg 83%
    01:00 +4°C° 0 mm 3 m/s 748 mmHg 82%
    02:00 +5°C° 0 mm 3 m/s 748 mmHg 82%
    03:00 +7°C° 0 mm 3 m/s 748 mmHg 82%
    04:00 +7°C° 0 mm 2 m/s 747 mmHg 82%
    05:00 +7°C° 0 mm 2 m/s 748 mmHg 83%
    06:00 +7°C° 0 mm 3 m/s 748 mmHg 84%
    07:00 +7°C° 0 mm 3 m/s 748 mmHg 85%
    08:00 +8°C° 0 mm 3 m/s 748 mmHg 80%
    09:00 +9°C° 0 mm 3 m/s 748 mmHg 76%
    10:00 +10°C° 0 mm 3 m/s 747 mmHg 71%
    11:00 +11°C° 0 mm 3 m/s 747 mmHg 69%
    12:00 +12°C° 0 mm 4 m/s 746 mmHg 66%
    13:00 +12°C° 0 mm 4 m/s 746 mmHg 63%
    14:00 +12°C° 0 mm 4 m/s 745 mmHg 65%
    15:00 +12°C° 0 mm 4 m/s 745 mmHg 66%
    16:00 +11°C° 0 mm 3 m/s 745 mmHg 68%
    17:00 +11°C° 0.1 mm 3 m/s 745 mmHg 71%
    18:00 +10°C° 0.1 mm 3 m/s 745 mmHg 75%
    19:00 +10°C° 0.1 mm 3 m/s 744 mmHg 78%
    20:00 +10°C° 0.1 mm 4 m/s 744 mmHg 79%
    21:00 +10°C° 0.1 mm 4 m/s 744 mmHg 81%
    22:00 +10°C° 0.1 mm 4 m/s 743 mmHg 82%
    23:00 +10°C° 0.3 mm 4 m/s 744 mmHg 83%
    Mostrar mais